User: anonymous   Login
Location: Newark
(45.2500°N, 7.5833°E)
Time: 19:57:38
(UTC+00:00)
Language:

JY1SAT - Orbit

View from above orbital plane
View from above orbital plane
View from above satellite
View from above satellite

Ground track
Ground track

The orbit data is extracted from the following two-line orbital elements,

1 43803U 18099AX  21058.42439508  .00000725  00000-0  70059-4 0  9995
2 43803  97.6752 131.3573 0016491  62.2964 297.9928 14.95743155122048
Epoch (UTC): 27 February 2021 10:11:07
Eccentricity: 0.0016491
inclination: 97.6752°
perigee height: 568 km
apogee height: 591 km
right ascension of ascending node: 131.3573°
argument of perigee: 62.2964°
revolutions per day: 14.95743155
mean anomaly at epoch: 297.9928°
orbit number at epoch: 12204

The dashed part of the orbit path shows where the satellite is in the earth's shadow,  

DLR